owner,sensor,date,latitude,longitude,vertical_datum,wind_speed,wind_to_direction,wind_speed_of_gust,qcFlag 
FIT,ioos:station:wmo:SIPF1:1,2013-06-01T00:00:00Z,27.8620,-80.4450,1.0,8.8,93.0,99.0,'11111222,11111222,11144222' 
FIT,ioos:station:wmo:SIPF1:1,2013-06-01T00:15:00Z,27.8620,-80.4450,1.0,9.2,97.0,99.0,'11111222,11111222,11144222' 
FIT,ioos:station:wmo:SIPF1:1,2013-06-01T00:30:00Z,27.8620,-80.4450,1.0,9.6,103.0,99.0,'11111222,11111222,11144222' 
FIT,ioos:station:wmo:SIPF1:1,2013-06-01T00:45:00Z,27.8620,-80.4450,1.0,8.8,104.0,99.0,'11111222,11111222,11144222' 
FIT,ioos:station:wmo:SIPF1:1,2013-06-01T01:00:00Z,27.8620,-80.4450,1.0,8.3,109.0,99.0,'11111222,11111222,11144222' 
FIT,ioos:station:wmo:SIPF1:1,2013-06-01T01:15:00Z,27.8620,-80.4450,1.0,8.0,107.0,99.0,'11111222,11111222,11144222' 
FIT,ioos:station:wmo:SIPF1:1,2013-06-01T01:30:00Z,27.8620,-80.4450,1.0,7.8,102.0,99.0,'11111222,11111222,11144222' 
FIT,ioos:station:wmo:SIPF1:1,2013-06-01T01:45:00Z,27.8620,-80.4450,1.0,8.9,104.0,99.0,'11111222,11111222,11144222' 
FIT,ioos:station:wmo:SIPF1:1,2013-06-01T02:00:00Z,27.8620,-80.4450,1.0,8.3,104.0,99.0,'11111222,11111222,11144222' 
FIT,ioos:station:wmo:SIPF1:1,2013-06-01T02:15:00Z,27.8620,-80.4450,1.0,8.8,106.0,99.0,'11111222,11111222,11144222' 
FIT,ioos:station:wmo:SIPF1:1,2013-06-01T02:30:00Z,27.8620,-80.4450,1.0,8.9,107.0,99.0,'11111222,11111222,11144222' 
FIT,ioos:station:wmo:SIPF1:1,2013-06-01T02:45:00Z,27.8620,-80.4450,1.0,8.6,102.0,99.0,'11111222,11111222,11144222' 
FIT,ioos:station:wmo:SIPF1:1,2013-06-01T03:00:00Z,27.8620,-80.4450,1.0,9.2,105.0,99.0,'11111222,11111222,11144222' 
FIT,ioos:station:wmo:SIPF1:1,2013-06-01T03:15:00Z,27.8620,-80.4450,1.0,9.1,103.0,99.0,'11111222,11111222,11144222' 
FIT,ioos:station:wmo:SIPF1:1,2013-06-01T03:30:00Z,27.8620,-80.4450,1.0,8.9,103.0,99.0,'11111222,11111222,11144222' 
FIT,ioos:station:wmo:SIPF1:1,2013-06-01T03:45:00Z,27.8620,-80.4450,1.0,9.5,106.0,99.0,'11111222,11111222,11144222' 
FIT,ioos:station:wmo:SIPF1:1,2013-06-01T04:00:00Z,27.8620,-80.4450,1.0,10.1,108.0,99.0,'11111222,11111222,11144222' 
FIT,ioos:station:wmo:SIPF1:1,2013-06-01T04:15:00Z,27.8620,-80.4450,1.0,10.0,115.0,99.0,'11111222,11111222,11144222' 
FIT,ioos:station:wmo:SIPF1:1,2013-06-01T04:30:00Z,27.8620,-80.4450,1.0,8.6,111.0,99.0,'11111222,11111222,11144222' 
FIT,ioos:station:wmo:SIPF1:1,2013-06-01T04:45:00Z,27.8620,-80.4450,1.0,8.9,110.0,99.0,'11111222,11111222,11144222' 
FIT,ioos:station:wmo:SIPF1:1,2013-06-01T05:00:00Z,27.8620,-80.4450,1.0,8.4,110.0,99.0,'11111222,11111222,11144222' 
FIT,ioos:station:wmo:SIPF1:1,2013-06-01T05:15:00Z,27.8620,-80.4450,1.0,8.1,112.0,99.0,'11111222,11111222,11144222' 
FIT,ioos:station:wmo:SIPF1:1,2013-06-01T05:30:00Z,27.8620,-80.4450,1.0,8.9,110.0,99.0,'11111222,11111222,11144222' 
FIT,ioos:station:wmo:SIPF1:1,2013-06-01T05:45:00Z,27.8620,-80.4450,1.0,8.6,107.0,99.0,'11111222,11111222,11144222' 
FIT,ioos:station:wmo:SIPF1:1,2013-06-01T06:00:00Z,27.8620,-80.4450,1.0,8.7,112.0,99.0,'11111222,11111222,11144222' 
FIT,ioos:station:wmo:SIPF1:1,2013-06-01T06:15:00Z,27.8620,-80.4450,1.0,8.7,114.0,99.0,'11111222,11111222,11144222' 
FIT,ioos:station:wmo:SIPF1:1,2013-06-01T06:30:00Z,27.8620,-80.4450,1.0,8.3,112.0,99.0,'11111222,11111222,11144222' 
FIT,ioos:station:wmo:SIPF1:1,2013-06-01T06:45:00Z,27.8620,-80.4450,1.0,8.6,113.0,99.0,'11111222,11111222,11144222' 
FIT,ioos:station:wmo:SIPF1:1,2013-06-01T07:00:00Z,27.8620,-80.4450,1.0,8.0,113.0,99.0,'11111222,11111222,11144222' 
FIT,ioos:station:wmo:SIPF1:1,2013-06-01T07:15:00Z,27.8620,-80.4450,1.0,9.2,113.0,99.0,'11111222,11111222,11144222' 
FIT,ioos:station:wmo:SIPF1:1,2013-06-01T07:30:00Z,27.8620,-80.4450,1.0,9.0,113.0,99.0,'11111222,11111222,11144222' 
FIT,ioos:station:wmo:SIPF1:1,2013-06-01T07:45:00Z,27.8620,-80.4450,1.0,8.1,116.0,99.0,'11111222,11111222,11144222' 
FIT,ioos:station:wmo:SIPF1:1,2013-06-01T08:00:00Z,27.8620,-80.4450,1.0,7.9,114.0,99.0,'11111222,11111222,11144222' 
FIT,ioos:station:wmo:SIPF1:1,2013-06-01T08:15:00Z,27.8620,-80.4450,1.0,8.0,115.0,99.0,'11111222,11111222,11144222' 
FIT,ioos:station:wmo:SIPF1:1,2013-06-01T08:30:00Z,27.8620,-80.4450,1.0,7.7,111.0,99.0,'11111222,11111222,11144222' 
FIT,ioos:station:wmo:SIPF1:1,2013-06-01T08:45:00Z,27.8620,-80.4450,1.0,7.3,112.0,99.0,'11111222,11111222,11144222' 
FIT,ioos:station:wmo:SIPF1:1,2013-06-01T09:00:00Z,27.8620,-80.4450,1.0,7.6,113.0,99.0,'11111222,11111222,11144222' 
FIT,ioos:station:wmo:SIPF1:1,2013-06-01T09:15:00Z,27.8620,-80.4450,1.0,8.1,117.0,99.0,'11111222,11111222,11144222' 
FIT,ioos:station:wmo:SIPF1:1,2013-06-01T09:30:00Z,27.8620,-80.4450,1.0,7.5,117.0,99.0,'11111222,11111222,11144222' 
FIT,ioos:station:wmo:SIPF1:1,2013-06-01T09:45:00Z,27.8620,-80.4450,1.0,6.9,114.0,99.0,'11111222,11111222,11144222' 
FIT,ioos:station:wmo:SIPF1:1,2013-06-01T10:00:00Z,27.8620,-80.4450,1.0,7.1,109.0,99.0,'11111222,11111222,11144222' 
FIT,ioos:station:wmo:SIPF1:1,2013-06-01T10:15:00Z,27.8620,-80.4450,1.0,6.9,106.0,99.0,'11111222,11111222,11144222' 
FIT,ioos:station:wmo:SIPF1:1,2013-06-01T10:30:00Z,27.8620,-80.4450,1.0,5.9,110.0,99.0,'11111222,11111222,11144222' 
FIT,ioos:station:wmo:SIPF1:1,2013-06-01T10:45:00Z,27.8620,-80.4450,1.0,5.5,105.0,99.0,'11111222,11111222,11144222' 
FIT,ioos:station:wmo:SIPF1:1,2013-06-01T11:00:00Z,27.8620,-80.4450,1.0,5.7,104.0,99.0,'11111222,11111222,11144222' 
FIT,ioos:station:wmo:SIPF1:1,2013-06-01T11:15:00Z,27.8620,-80.4450,1.0,5.2,98.0,99.0,'11111222,11111222,11144222' 
FIT,ioos:station:wmo:SIPF1:1,2013-06-01T11:30:00Z,27.8620,-80.4450,1.0,5.4,104.0,99.0,'11111222,11111222,11144222' 
FIT,ioos:station:wmo:SIPF1:1,2013-06-01T11:45:00Z,27.8620,-80.4450,1.0,5.7,102.0,99.0,'11111222,11111222,11144222' 
FIT,ioos:station:wmo:SIPF1:1,2013-06-01T12:00:00Z,27.8620,-80.4450,1.0,5.9,105.0,99.0,'11111222,11111222,11144222' 
FIT,ioos:station:wmo:SIPF1:1,2013-06-01T12:15:00Z,27.8620,-80.4450,1.0,6.0,110.0,99.0,'11111222,11111222,11144222' 
FIT,ioos:station:wmo:SIPF1:1,2013-06-01T12:30:00Z,27.8620,-80.4450,1.0,5.8,107.0,99.0,'11111222,11111222,11144222' 
FIT,ioos:station:wmo:SIPF1:1,2013-06-01T12:45:00Z,27.8620,-80.4450,1.0,5.5,107.0,99.0,'11111222,11111222,11144222' 
FIT,ioos:station:wmo:SIPF1:1,2013-06-01T13:00:00Z,27.8620,-80.4450,1.0,4.7,100.0,99.0,'11111222,11111222,11144222' 
FIT,ioos:station:wmo:SIPF1:1,2013-06-01T13:15:00Z,27.8620,-80.4450,1.0,4.8,102.0,99.0,'11111222,11111222,11144222' 
FIT,ioos:station:wmo:SIPF1:1,2013-06-01T13:30:00Z,27.8620,-80.4450,1.0,5.6,101.0,99.0,'11111222,11111222,11144222' 
FIT,ioos:station:wmo:SIPF1:1,2013-06-01T13:45:00Z,27.8620,-80.4450,1.0,5.6,98.0,99.0,'11111222,11111222,11144222' 
FIT,ioos:station:wmo:SIPF1:1,2013-06-01T14:00:00Z,27.8620,-80.4450,1.0,5.5,98.0,99.0,'11111222,11111222,11144222' 
FIT,ioos:station:wmo:SIPF1:1,2013-06-01T14:15:00Z,27.8620,-80.4450,1.0,5.1,100.0,99.0,'11111222,11111222,11144222' 
FIT,ioos:station:wmo:SIPF1:1,2013-06-01T14:30:00Z,27.8620,-80.4450,1.0,5.0,101.0,99.0,'11111222,11111222,11144222' 
FIT,ioos:station:wmo:SIPF1:1,2013-06-01T14:45:00Z,27.8620,-80.4450,1.0,5.1,103.0,99.0,'11111222,11111222,11144222' 
FIT,ioos:station:wmo:SIPF1:1,2013-06-01T15:00:00Z,27.8620,-80.4450,1.0,5.3,107.0,99.0,'11111222,11111222,11144222' 
FIT,ioos:station:wmo:SIPF1:1,2013-06-01T15:15:00Z,27.8620,-80.4450,1.0,5.1,110.0,99.0,'11111222,11111222,11144222' 
FIT,ioos:station:wmo:SIPF1:1,2013-06-01T15:30:00Z,27.8620,-80.4450,1.0,4.8,105.0,99.0,'11111222,11111222,11144222' 
FIT,ioos:station:wmo:SIPF1:1,2013-06-01T15:45:00Z,27.8620,-80.4450,1.0,4.6,104.0,99.0,'11111222,11111222,11144222' 
FIT,ioos:station:wmo:SIPF1:1,2013-06-01T16:00:00Z,27.8620,-80.4450,1.0,5.1,109.0,99.0,'11111222,11111222,11144222' 
FIT,ioos:station:wmo:SIPF1:1,2013-06-01T16:15:00Z,27.8620,-80.4450,1.0,4.9,109.0,99.0,'11111222,11111222,11144222' 
FIT,ioos:station:wmo:SIPF1:1,2013-06-01T16:30:00Z,27.8620,-80.4450,1.0,4.6,109.0,99.0,'11111222,11111222,11144222' 
FIT,ioos:station:wmo:SIPF1:1,2013-06-01T16:45:00Z,27.8620,-80.4450,1.0,5.4,112.0,99.0,'11111222,11111222,11144222' 
FIT,ioos:station:wmo:SIPF1:1,2013-06-01T17:00:00Z,27.8620,-80.4450,1.0,5.8,110.0,99.0,'11111222,11111222,11144222' 
FIT,ioos:station:wmo:SIPF1:1,2013-06-01T17:15:00Z,27.8620,-80.4450,1.0,5.6,108.0,99.0,'11111222,11111222,11144222' 
FIT,ioos:station:wmo:SIPF1:1,2013-06-01T17:30:00Z,27.8620,-80.4450,1.0,6.0,102.0,99.0,'11111222,11111222,11144222' 
FIT,ioos:station:wmo:SIPF1:1,2013-06-01T17:45:00Z,27.8620,-80.4450,1.0,6.0,105.0,99.0,'11111222,11111222,11144222' 
FIT,ioos:station:wmo:SIPF1:1,2013-06-01T18:00:00Z,27.8620,-80.4450,1.0,6.6,114.0,99.0,'11111222,11111222,11144222' 
FIT,ioos:station:wmo:SIPF1:1,2013-06-01T18:15:00Z,27.8620,-80.4450,1.0,6.0,120.0,99.0,'11111222,11111222,11144222' 
FIT,ioos:station:wmo:SIPF1:1,2013-06-01T18:30:00Z,27.8620,-80.4450,1.0,5.8,122.0,99.0,'11111222,11111222,11144222' 
FIT,ioos:station:wmo:SIPF1:1,2013-06-01T18:45:00Z,27.8620,-80.4450,1.0,5.6,119.0,99.0,'11111222,11111222,11144222' 
FIT,ioos:station:wmo:SIPF1:1,2013-06-01T19:00:00Z,27.8620,-80.4450,1.0,5.4,110.0,99.0,'11111222,11111222,11144222' 
FIT,ioos:station:wmo:SIPF1:1,2013-06-01T19:15:00Z,27.8620,-80.4450,1.0,5.7,113.0,99.0,'11111222,11111222,11144222' 
FIT,ioos:station:wmo:SIPF1:1,2013-06-01T19:30:00Z,27.8620,-80.4450,1.0,6.1,111.0,99.0,'11111222,11111222,11144222' 
FIT,ioos:station:wmo:SIPF1:1,2013-06-01T19:45:00Z,27.8620,-80.4450,1.0,6.3,112.0,99.0,'11111222,11111222,11144222' 
FIT,ioos:station:wmo:SIPF1:1,2013-06-01T20:00:00Z,27.8620,-80.4450,1.0,6.3,119.0,99.0,'11111222,11111222,11144222' 
FIT,ioos:station:wmo:SIPF1:1,2013-06-01T20:15:00Z,27.8620,-80.4450,1.0,6.3,118.0,99.0,'11111222,11111222,11144222' 
FIT,ioos:station:wmo:SIPF1:1,2013-06-01T20:30:00Z,27.8620,-80.4450,1.0,7.2,115.0,99.0,'11111222,11111222,11144222' 
FIT,ioos:station:wmo:SIPF1:1,2013-06-01T20:45:00Z,27.8620,-80.4450,1.0,7.9,116.0,99.0,'11111222,11111222,11144222' 
FIT,ioos:station:wmo:SIPF1:1,2013-06-01T21:00:00Z,27.8620,-80.4450,1.0,7.8,119.0,99.0,'11111222,11111222,11144222' 
FIT,ioos:station:wmo:SIPF1:1,2013-06-01T21:15:00Z,27.8620,-80.4450,1.0,8.6,126.0,99.0,'11111222,11111222,11144222' 
FIT,ioos:station:wmo:SIPF1:1,2013-06-01T21:30:00Z,27.8620,-80.4450,1.0,8.7,127.0,99.0,'11111222,11111222,11144222' 
FIT,ioos:station:wmo:SIPF1:1,2013-06-01T21:45:00Z,27.8620,-80.4450,1.0,8.9,128.0,99.0,'11111222,11111222,11144222' 
FIT,ioos:station:wmo:SIPF1:1,2013-06-01T22:00:00Z,27.8620,-80.4450,1.0,7.3,128.0,99.0,'11111222,11111222,11144222' 
FIT,ioos:station:wmo:SIPF1:1,2013-06-01T22:15:00Z,27.8620,-80.4450,1.0,7.1,125.0,99.0,'11111222,11111222,11144222' 
FIT,ioos:station:wmo:SIPF1:1,2013-06-01T22:30:00Z,27.8620,-80.4450,1.0,7.2,111.0,99.0,'11111222,11111222,11144222' 
FIT,ioos:station:wmo:SIPF1:1,2013-06-01T22:45:00Z,27.8620,-80.4450,1.0,6.2,111.0,99.0,'11111222,11111222,11144222' 
FIT,ioos:station:wmo:SIPF1:1,2013-06-01T23:00:00Z,27.8620,-80.4450,1.0,7.9,122.0,99.0,'11111222,11111222,11144222' 
FIT,ioos:station:wmo:SIPF1:1,2013-06-01T23:15:00Z,27.8620,-80.4450,1.0,8.1,126.0,99.0,'11111222,11111222,11144222' 
FIT,ioos:station:wmo:SIPF1:1,2013-06-01T23:30:00Z,27.8620,-80.4450,1.0,7.5,124.0,99.0,'11111222,11111222,11144222' 
FIT,ioos:station:wmo:SIPF1:1,2013-06-01T23:45:00Z,27.8620,-80.4450,1.0,7.8,131.0,99.0,'11111222,11111222,11144222' 
FIT,ioos:station:wmo:SIPF1:1,2013-06-02T00:00:00Z,27.8620,-80.4450,1.0,5.9,126.0,99.0,'11111222,11111222,11144222' 
FIT,ioos:station:wmo:SIPF1:1,2013-06-02T00:15:00Z,27.8620,-80.4450,1.0,6.7,123.0,99.0,'11111222,11111222,11144222' 
FIT,ioos:station:wmo:SIPF1:1,2013-06-02T00:30:00Z,27.8620,-80.4450,1.0,6.9,128.0,99.0,'11111222,11111222,11144222' 
FIT,ioos:station:wmo:SIPF1:1,2013-06-02T00:45:00Z,27.8620,-80.4450,1.0,6.8,121.0,99.0,'11111222,11111222,11144222' 
FIT,ioos:station:wmo:SIPF1:1,2013-06-02T01:00:00Z,27.8620,-80.4450,1.0,6.0,123.0,99.0,'11111222,11111222,11144222' 
FIT,ioos:station:wmo:SIPF1:1,2013-06-02T01:15:00Z,27.8620,-80.4450,1.0,6.0,124.0,99.0,'11111222,11111222,11144222' 
FIT,ioos:station:wmo:SIPF1:1,2013-06-02T01:30:00Z,27.8620,-80.4450,1.0,5.6,117.0,99.0,'11111222,11111222,11144222' 
FIT,ioos:station:wmo:SIPF1:1,2013-06-02T01:45:00Z,27.8620,-80.4450,1.0,5.4,112.0,99.0,'11111222,11111222,11144222' 
FIT,ioos:station:wmo:SIPF1:1,2013-06-02T02:00:00Z,27.8620,-80.4450,1.0,5.0,117.0,99.0,'11111222,11111222,11144222' 
FIT,ioos:station:wmo:SIPF1:1,2013-06-02T02:15:00Z,27.8620,-80.4450,1.0,5.4,116.0,99.0,'11111222,11111222,11144222' 
FIT,ioos:station:wmo:SIPF1:1,2013-06-02T02:30:00Z,27.8620,-80.4450,1.0,5.7,106.0,99.0,'11111222,11111222,11144222' 
FIT,ioos:station:wmo:SIPF1:1,2013-06-02T02:45:00Z,27.8620,-80.4450,1.0,6.0,115.0,99.0,'11111222,11111222,11144222' 
FIT,ioos:station:wmo:SIPF1:1,2013-06-02T03:00:00Z,27.8620,-80.4450,1.0,5.3,116.0,99.0,'11111222,11111222,11144222' 
FIT,ioos:station:wmo:SIPF1:1,2013-06-02T03:15:00Z,27.8620,-80.4450,1.0,5.6,116.0,99.0,'11111222,11111222,11144222' 
FIT,ioos:station:wmo:SIPF1:1,2013-06-02T03:30:00Z,27.8620,-80.4450,1.0,5.6,118.0,99.0,'11111222,11111222,11144222' 
FIT,ioos:station:wmo:SIPF1:1,2013-06-02T03:45:00Z,27.8620,-80.4450,1.0,6.2,120.0,99.0,'11111222,11111222,11144222' 
FIT,ioos:station:wmo:SIPF1:1,2013-06-02T04:00:00Z,27.8620,-80.4450,1.0,5.5,133.0,99.0,'11111222,11111222,11144222' 
FIT,ioos:station:wmo:SIPF1:1,2013-06-02T04:15:00Z,27.8620,-80.4450,1.0,4.4,123.0,99.0,'11111222,11111222,11144222' 
FIT,ioos:station:wmo:SIPF1:1,2013-06-02T04:30:00Z,27.8620,-80.4450,1.0,3.8,120.0,99.0,'11111222,11111222,11144222' 
FIT,ioos:station:wmo:SIPF1:1,2013-06-02T04:45:00Z,27.8620,-80.4450,1.0,3.5,123.0,99.0,'11111222,11111222,11144222' 
FIT,ioos:station:wmo:SIPF1:1,2013-06-02T05:00:00Z,27.8620,-80.4450,1.0,4.8,129.0,99.0,'11111222,11111222,11144222' 
FIT,ioos:station:wmo:SIPF1:1,2013-06-02T05:15:00Z,27.8620,-80.4450,1.0,4.8,131.0,99.0,'11111222,11111222,11144222' 
FIT,ioos:station:wmo:SIPF1:1,2013-06-02T05:30:00Z,27.8620,-80.4450,1.0,3.9,120.0,99.0,'11111222,11111222,11144222' 
FIT,ioos:station:wmo:SIPF1:1,2013-06-02T05:45:00Z,27.8620,-80.4450,1.0,4.7,131.0,99.0,'11111222,11111222,11144222' 
FIT,ioos:station:wmo:SIPF1:1,2013-06-02T06:00:00Z,27.8620,-80.4450,1.0,4.7,136.0,99.0,'11111222,11111222,11144222' 
FIT,ioos:station:wmo:SIPF1:1,2013-06-02T06:15:00Z,27.8620,-80.4450,1.0,4.6,126.0,99.0,'11111222,11111222,11144222' 
FIT,ioos:station:wmo:SIPF1:1,2013-06-02T06:30:00Z,27.8620,-80.4450,1.0,4.0,119.0,99.0,'11111222,11111222,11144222' 
FIT,ioos:station:wmo:SIPF1:1,2013-06-02T06:45:00Z,27.8620,-80.4450,1.0,3.7,115.0,99.0,'11111222,11111222,11144222' 
FIT,ioos:station:wmo:SIPF1:1,2013-06-02T07:00:00Z,27.8620,-80.4450,1.0,3.7,120.0,99.0,'11111222,11111222,11144222' 
FIT,ioos:station:wmo:SIPF1:1,2013-06-02T07:15:00Z,27.8620,-80.4450,1.0,3.3,125.0,99.0,'11111222,11111222,11144222' 
FIT,ioos:station:wmo:SIPF1:1,2013-06-02T07:30:00Z,27.8620,-80.4450,1.0,2.8,124.0,99.0,'11111222,11111222,11144222' 
FIT,ioos:station:wmo:SIPF1:1,2013-06-02T07:45:00Z,27.8620,-80.4450,1.0,2.9,131.0,99.0,'11111222,11111222,11144222' 
FIT,ioos:station:wmo:SIPF1:1,2013-06-02T08:00:00Z,27.8620,-80.4450,1.0,2.8,141.0,99.0,'11111222,11111222,11144222' 
FIT,ioos:station:wmo:SIPF1:1,2013-06-02T08:15:00Z,27.8620,-80.4450,1.0,2.1,147.0,99.0,'11111222,11111222,11144222' 
FIT,ioos:station:wmo:SIPF1:1,2013-06-02T08:30:00Z,27.8620,-80.4450,1.0,2.1,149.0,99.0,'11111222,11111222,11144222' 
FIT,ioos:station:wmo:SIPF1:1,2013-06-02T08:45:00Z,27.8620,-80.4450,1.0,1.9,137.0,99.0,'11111222,11111222,11144222' 
FIT,ioos:station:wmo:SIPF1:1,2013-06-02T09:00:00Z,27.8620,-80.4450,1.0,1.9,145.0,99.0,'11111222,11111222,11144222' 
FIT,ioos:station:wmo:SIPF1:1,2013-06-02T09:15:00Z,27.8620,-80.4450,1.0,1.8,107.0,99.0,'11111222,11111222,11144222' 
FIT,ioos:station:wmo:SIPF1:1,2013-06-02T09:30:00Z,27.8620,-80.4450,1.0,1.9,92.0,99.0,'11111222,11111222,11144222' 
FIT,ioos:station:wmo:SIPF1:1,2013-06-02T09:45:00Z,27.8620,-80.4450,1.0,2.5,95.0,99.0,'11111222,11111222,11144222' 
FIT,ioos:station:wmo:SIPF1:1,2013-06-02T10:00:00Z,27.8620,-80.4450,1.0,2.6,110.0,99.0,'11111222,11111222,11144222' 
FIT,ioos:station:wmo:SIPF1:1,2013-06-02T10:15:00Z,27.8620,-80.4450,1.0,2.9,123.0,99.0,'11111222,11111222,11144222' 
FIT,ioos:station:wmo:SIPF1:1,2013-06-02T10:30:00Z,27.8620,-80.4450,1.0,3.2,122.0,99.0,'11111222,11111222,11144222' 
FIT,ioos:station:wmo:SIPF1:1,2013-06-02T10:45:00Z,27.8620,-80.4450,1.0,3.1,132.0,99.0,'11111222,11111222,11144222' 
FIT,ioos:station:wmo:SIPF1:1,2013-06-02T11:00:00Z,27.8620,-80.4450,1.0,3.1,121.0,99.0,'11111222,11111222,11144222' 
FIT,ioos:station:wmo:SIPF1:1,2013-06-02T11:15:00Z,27.8620,-80.4450,1.0,3.2,125.0,99.0,'11111222,11111222,11144222' 
FIT,ioos:station:wmo:SIPF1:1,2013-06-02T11:30:00Z,27.8620,-80.4450,1.0,3.3,140.0,99.0,'11111222,11111222,11144222' 
FIT,ioos:station:wmo:SIPF1:1,2013-06-02T11:45:00Z,27.8620,-80.4450,1.0,4.0,154.0,99.0,'11111222,11111222,11144222' 
FIT,ioos:station:wmo:SIPF1:1,2013-06-02T12:00:00Z,27.8620,-80.4450,1.0,4.1,161.0,99.0,'11111222,11111222,11144222' 
FIT,ioos:station:wmo:SIPF1:1,2013-06-02T12:15:00Z,27.8620,-80.4450,1.0,4.0,165.0,99.0,'11111222,11111222,11144222' 
FIT,ioos:station:wmo:SIPF1:1,2013-06-02T12:30:00Z,27.8620,-80.4450,1.0,3.8,180.0,99.0,'11111222,11111222,11144222' 
FIT,ioos:station:wmo:SIPF1:1,2013-06-02T12:45:00Z,27.8620,-80.4450,1.0,3.7,197.0,99.0,'11111222,11111222,11144222' 
FIT,ioos:station:wmo:SIPF1:1,2013-06-02T13:00:00Z,27.8620,-80.4450,1.0,3.9,194.0,99.0,'11111222,11111222,11144222' 
FIT,ioos:station:wmo:SIPF1:1,2013-06-02T13:15:00Z,27.8620,-80.4450,1.0,3.8,187.0,99.0,'11111222,11111222,11144222' 
FIT,ioos:station:wmo:SIPF1:1,2013-06-02T13:30:00Z,27.8620,-80.4450,1.0,3.2,184.0,99.0,'11111222,11111222,11144222' 
FIT,ioos:station:wmo:SIPF1:1,2013-06-02T13:45:00Z,27.8620,-80.4450,1.0,3.5,183.0,99.0,'11111222,11111222,11144222' 
FIT,ioos:station:wmo:SIPF1:1,2013-06-02T14:00:00Z,27.8620,-80.4450,1.0,3.7,186.0,99.0,'11111222,11111222,11144222' 
FIT,ioos:station:wmo:SIPF1:1,2013-06-02T14:15:00Z,27.8620,-80.4450,1.0,3.0,188.0,99.0,'11111222,11111222,11144222' 
FIT,ioos:station:wmo:SIPF1:1,2013-06-02T14:30:00Z,27.8620,-80.4450,1.0,2.7,179.0,99.0,'11111222,11111222,11144222' 
FIT,ioos:station:wmo:SIPF1:1,2013-06-02T14:45:00Z,27.8620,-80.4450,1.0,3.0,151.0,99.0,'11111222,11111222,11144222' 
FIT,ioos:station:wmo:SIPF1:1,2013-06-02T15:00:00Z,27.8620,-80.4450,1.0,3.7,171.0,99.0,'11111222,11111222,11144222' 
FIT,ioos:station:wmo:SIPF1:1,2013-06-02T15:30:00Z,27.8620,-80.4450,1.0,2.7,149.0,99.0,'11111222,11111222,11144222' 
FIT,ioos:station:wmo:SIPF1:1,2013-06-02T15:45:00Z,27.8620,-80.4450,1.0,2.3,146.0,99.0,'11111222,11111222,11144222' 
FIT,ioos:station:wmo:SIPF1:1,2013-06-02T16:00:00Z,27.8620,-80.4450,1.0,4.6,132.0,99.0,'11111222,11111222,11144222' 
FIT,ioos:station:wmo:SIPF1:1,2013-06-02T16:15:00Z,27.8620,-80.4450,1.0,4.7,125.0,99.0,'11111222,11111222,11144222' 
FIT,ioos:station:wmo:SIPF1:1,2013-06-02T16:30:00Z,27.8620,-80.4450,1.0,5.1,118.0,99.0,'11111222,11111222,11144222' 
FIT,ioos:station:wmo:SIPF1:1,2013-06-02T16:45:00Z,27.8620,-80.4450,1.0,5.4,113.0,99.0,'11111222,11111222,11144222' 
FIT,ioos:station:wmo:SIPF1:1,2013-06-02T17:00:00Z,27.8620,-80.4450,1.0,5.7,116.0,99.0,'11111222,11111222,11144222' 
FIT,ioos:station:wmo:SIPF1:1,2013-06-02T17:15:00Z,27.8620,-80.4450,1.0,5.6,131.0,99.0,'11111222,11111222,11144222' 
FIT,ioos:station:wmo:SIPF1:1,2013-06-02T17:30:00Z,27.8620,-80.4450,1.0,6.1,135.0,99.0,'11111222,11111222,11144222' 
FIT,ioos:station:wmo:SIPF1:1,2013-06-02T17:45:00Z,27.8620,-80.4450,1.0,6.2,129.0,99.0,'11111222,11111222,11144222' 
FIT,ioos:station:wmo:SIPF1:1,2013-06-02T18:00:00Z,27.8620,-80.4450,1.0,6.7,132.0,99.0,'11111222,11111222,11144222' 
FIT,ioos:station:wmo:SIPF1:1,2013-06-02T18:15:00Z,27.8620,-80.4450,1.0,6.3,124.0,99.0,'11111222,11111222,11144222' 
FIT,ioos:station:wmo:SIPF1:1,2013-06-02T18:30:00Z,27.8620,-80.4450,1.0,6.3,119.0,99.0,'11111222,11111222,11144222' 
FIT,ioos:station:wmo:SIPF1:1,2013-06-02T18:45:00Z,27.8620,-80.4450,1.0,6.3,122.0,99.0,'11111222,11111222,11144222' 
FIT,ioos:station:wmo:SIPF1:1,2013-06-02T19:00:00Z,27.8620,-80.4450,1.0,6.4,119.0,99.0,'11111222,11111222,11144222' 
FIT,ioos:station:wmo:SIPF1:1,2013-06-02T19:15:00Z,27.8620,-80.4450,1.0,6.6,122.0,99.0,'11111222,11111222,11144222' 
FIT,ioos:station:wmo:SIPF1:1,2013-06-02T19:30:00Z,27.8620,-80.4450,1.0,6.8,126.0,99.0,'11111222,11111222,11144222' 
FIT,ioos:station:wmo:SIPF1:1,2013-06-02T19:45:00Z,27.8620,-80.4450,1.0,7.0,127.0,99.0,'11111222,11111222,11144222' 
FIT,ioos:station:wmo:SIPF1:1,2013-06-02T20:00:00Z,27.8620,-80.4450,1.0,7.5,133.0,99.0,'11111222,11111222,11144222' 
FIT,ioos:station:wmo:SIPF1:1,2013-06-02T20:15:00Z,27.8620,-80.4450,1.0,7.2,131.0,99.0,'11111222,11111222,11144222' 
FIT,ioos:station:wmo:SIPF1:1,2013-06-02T20:30:00Z,27.8620,-80.4450,1.0,7.4,129.0,99.0,'11111222,11111222,11144222' 
FIT,ioos:station:wmo:SIPF1:1,2013-06-02T20:45:00Z,27.8620,-80.4450,1.0,7.3,135.0,99.0,'11111222,11111222,11144222' 
FIT,ioos:station:wmo:SIPF1:1,2013-06-02T21:00:00Z,27.8620,-80.4450,1.0,7.8,135.0,99.0,'11111222,11111222,11144222' 
FIT,ioos:station:wmo:SIPF1:1,2013-06-02T21:15:00Z,27.8620,-80.4450,1.0,7.8,137.0,99.0,'11111222,11111222,11144222' 
FIT,ioos:station:wmo:SIPF1:1,2013-06-02T21:30:00Z,27.8620,-80.4450,1.0,8.0,143.0,99.0,'11111222,11111222,11144222' 
FIT,ioos:station:wmo:SIPF1:1,2013-06-02T21:45:00Z,27.8620,-80.4450,1.0,8.6,145.0,99.0,'11111222,11111222,11144222' 
FIT,ioos:station:wmo:SIPF1:1,2013-06-02T22:00:00Z,27.8620,-80.4450,1.0,8.6,149.0,99.0,'11111222,11111222,11144222' 
FIT,ioos:station:wmo:SIPF1:1,2013-06-02T22:15:00Z,27.8620,-80.4450,1.0,8.8,146.0,99.0,'11111222,11111222,11144222' 
FIT,ioos:station:wmo:SIPF1:1,2013-06-02T22:30:00Z,27.8620,-80.4450,1.0,9.1,153.0,99.0,'11111222,11111222,11144222' 
FIT,ioos:station:wmo:SIPF1:1,2013-06-02T22:45:00Z,27.8620,-80.4450,1.0,9.2,160.0,99.0,'11111222,11111222,11144222' 
FIT,ioos:station:wmo:SIPF1:1,2013-06-02T23:00:00Z,27.8620,-80.4450,1.0,8.3,167.0,99.0,'11111222,11111222,11144222' 
FIT,ioos:station:wmo:SIPF1:1,2013-06-02T23:15:00Z,27.8620,-80.4450,1.0,4.6,195.0,99.0,'11111222,11111222,11144222' 
FIT,ioos:station:wmo:SIPF1:1,2013-06-02T23:30:00Z,27.8620,-80.4450,1.0,3.5,263.0,99.0,'11111222,11111222,11144222' 
FIT,ioos:station:wmo:SIPF1:1,2013-06-02T23:45:00Z,27.8620,-80.4450,1.0,4.0,275.0,99.0,'11111222,11111222,11144222' 
FIT,ioos:station:wmo:SIPF1:1,2013-06-03T00:00:00Z,27.8620,-80.4450,1.0,2.9,275.0,99.0,'11111222,11111222,11144222' 
FIT,ioos:station:wmo:SIPF1:1,2013-06-03T00:15:00Z,27.8620,-80.4450,1.0,2.1,250.0,99.0,'11111222,11111222,11144222' 
FIT,ioos:station:wmo:SIPF1:1,2013-06-03T00:30:00Z,27.8620,-80.4450,1.0,2.8,202.0,99.0,'11111222,11111222,11144222' 
FIT,ioos:station:wmo:SIPF1:1,2013-06-03T00:45:00Z,27.8620,-80.4450,1.0,3.5,180.0,99.0,'11111222,11111222,11144222' 
FIT,ioos:station:wmo:SIPF1:1,2013-06-03T01:00:00Z,27.8620,-80.4450,1.0,4.3,189.0,99.0,'11111222,11111222,11144222' 
FIT,ioos:station:wmo:SIPF1:1,2013-06-03T01:15:00Z,27.8620,-80.4450,1.0,4.5,199.0,99.0,'11111222,11111222,11144222' 
FIT,ioos:station:wmo:SIPF1:1,2013-06-03T01:30:00Z,27.8620,-80.4450,1.0,4.1,211.0,99.0,'11111222,11111222,11144222' 
FIT,ioos:station:wmo:SIPF1:1,2013-06-03T01:45:00Z,27.8620,-80.4450,1.0,3.6,203.0,99.0,'11111222,11111222,11144222' 
FIT,ioos:station:wmo:SIPF1:1,2013-06-03T02:00:00Z,27.8620,-80.4450,1.0,3.4,196.0,99.0,'11111222,11111222,11144222' 
FIT,ioos:station:wmo:SIPF1:1,2013-06-03T02:15:00Z,27.8620,-80.4450,1.0,3.3,192.0,99.0,'11111222,11111222,11144222' 
FIT,ioos:station:wmo:SIPF1:1,2013-06-03T02:30:00Z,27.8620,-80.4450,1.0,2.7,211.0,99.0,'11111222,11111222,11144222' 
FIT,ioos:station:wmo:SIPF1:1,2013-06-03T02:45:00Z,27.8620,-80.4450,1.0,3.0,222.0,99.0,'11111222,11111222,11144222' 
FIT,ioos:station:wmo:SIPF1:1,2013-06-03T03:00:00Z,27.8620,-80.4450,1.0,2.9,202.0,99.0,'11111222,11111222,11144222' 
FIT,ioos:station:wmo:SIPF1:1,2013-06-03T03:15:00Z,27.8620,-80.4450,1.0,3.2,211.0,99.0,'11111222,11111222,11144222' 
FIT,ioos:station:wmo:SIPF1:1,2013-06-03T03:30:00Z,27.8620,-80.4450,1.0,3.3,198.0,99.0,'11111222,11111222,11144222' 